FW0450 Weather Reports


time (UTC)temp
C
wind
direction
speed
KPH
gust
KPH
rain 1hr
cm
rain 24hr
cm
rain mn
cm
humidity
%
barometer
mb
20180218182005 11 12 11.3 12.9 0.00 0.00 0.00 67 1038.5
20180218181504 11 11 9.7 12.9 0.00 0.00 0.00 67 1038.5
20180218181004 12 9 9.7 11.3 0.00 0.00 0.00 67 1035.5
20180218180504 12 12 11.3 14.5 0.00 0.00 0.00 66 1035.5
20180218180004 12 16 12.9 16.1 0.00 0.00 0.00 66 1035.5
20180218175504 12 12 14.5 16.1 0.00 0.00 0.00 65 1035.5
20180218175005 12 10 14.5 20.9 0.00 0.00 0.00 65 1035.5
20180218174505 12 3 16.1 20.9 0.00 0.00 0.00 64 1035.5
20180218174004 12 345 14.5 17.7 0.00 0.00 0.00 64 1035.5
20180218173504 13 343 12.9 16.1 0.00 0.00 0.00 63 1035.5
20180218173004 13 353 12.9 16.1 0.00 0.00 0.00 63 1035.5
20180218172505 13 4 11.3 16.1 0.00 0.00 0.00 63 1034.5
20180218172005 13 344 12.9 16.1 0.00 0.00 0.00 63 1034.5
20180218171504 13 329 11.3 16.1 0.00 0.00 0.00 63 1034.5
20180218171004 13 331 11.3 14.5 0.00 0.00 0.00 62 1034.5
20180218170505 13 339 12.9 19.3 0.00 0.00 0.00 62 1034.5
20180218170005 13 341 12.9 19.3 0.00 0.00 0.00 61 1034.5
20180218165505 14 351 14.5 19.3 0.00 0.00 0.00 61 1034.5
20180218165005 14 353 14.5 19.3 0.00 0.00 0.00 60 1034.5
20180218164504 14 346 14.5 17.7 0.00 0.00 0.00 60 1034.5
20180218164006 14 345 14.5 19.3 0.00 0.00 0.00 60 1035.5
20180218163505 15 351 14.5 19.3 0.00 0.00 0.00 59 1035.5
20180218163005 15 359 12.9 17.7 0.00 0.00 0.00 59 1035.5
20180218162505 15 355 14.5 19.3 0.00 0.00 0.00 59 1036.5
20180218162005 15 356 14.5 19.3 0.00 0.00 0.00 59 1036.5
20180218161505 15 7 14.5 19.3 0.00 0.00 0.00 59 1036.5
20180218161005 15 5 14.5 17.7 0.00 0.00 0.00 59 1036.5
20180218160504 15 3 16.1 24.1 0.00 0.00 0.00 58 1036.5
20180218160005 15 12 17.7 24.1 0.00 0.00 0.00 58 1036.5
20180218155505 15 2 16.1 24.1 0.00 0.00 0.00 58 1038.5
20180218155005 15 346 14.5 20.9 0.00 0.00 0.00 58 1038.5
20180218154504 15 350 12.9 20.9 0.00 0.00 0.00 58 1038.5
20180218154005 15 356 14.5 20.9 0.00 0.00 0.00 57 1039.5
20180218153505 15 357 17.7 22.5 0.00 0.00 0.00 57 1039.5
20180218153005 15 355 17.7 22.5 0.00 0.00 0.00 58 1039.5
20180218152505 15 350 14.5 19.3 0.00 0.00 0.00 59 1040.6
20180218152005 15 337 14.5 20.9 0.00 0.00 0.00 60 1040.6
20180218151504 15 332 16.1 20.9 0.00 0.00 0.00 61 1040.6
20180218151005 15 345 12.9 20.9 0.00 0.00 0.00 61 1041.6
20180218150505 15 348 14.5 20.9 0.00 0.00 0.00 61 1041.6
20180218150005 15 342 17.7 22.5 0.00 0.00 0.00 61 1041.6
20180218145504 15 340 17.7 22.5 0.00 0.00 0.00 61 1043.6
20180218145005 15 332 17.7 22.5 0.00 0.00 0.00 61 1043.6
20180218144504 15 318 14.5 20.9 0.00 0.00 0.00 61 1043.6
20180218144005 14 322 14.5 20.9 0.00 0.00 0.00 62 1044.6
20180218143505 14 337 14.5 20.9 0.00 0.00 0.00 62 1044.6
20180218143005 14 354 14.5 22.5 0.00 0.00 0.00 62 1044.6
20180218142505 14 352 16.1 22.5 0.00 0.00 0.00 62 1045.6
20180218142005 14 354 16.1 22.5 0.00 0.00 0.00 62 1045.6
20180218141505 14 341 16.1 22.5 0.00 0.00 0.00 63 1045.6
20180218141005 14 327 17.7 24.1 0.00 0.00 0.00 62 1046.6
20180218140504 14 342 19.3 24.1 0.00 0.00 0.00 62 1046.6
20180218140005 14 348 16.1 20.9 0.00 0.00 0.00 62 1046.6
20180218135505 14 339 12.9 17.7 0.00 0.00 0.00 62 1046.6
20180218135005 15 349 12.9 16.1 0.00 0.00 0.00 62 1046.6
20180218134504 14 4 14.5 16.1 0.00 0.00 0.00 62 1046.6
20180218134005 14 348 14.5 16.1 0.00 0.00 0.00 62 1046.6
20180218133505 14 313 14.5 19.3 0.00 0.00 0.00 63 1046.6
20180218133005 14 313 14.5 19.3 0.00 0.00 0.00 63 1046.6
20180218132504 14 316 12.9 17.7 0.00 0.00 0.00 62 1047.6
20180218132005 14 310 12.9 16.1 0.00 0.00 0.00 62 1047.6
20180218131505 14 322 11.3 16.1 0.00 0.00 0.00 62 1047.6
20180218131005 14 328 11.3 17.7 0.00 0.00 0.00 62 1047.6
20180218130504 14 322 11.3 17.7 0.00 0.00 0.00 61 1047.6
20180218130005 14 332 9.7 12.9 0.00 0.00 0.00 61 1047.6
20180218125506 14 352 9.7 14.5 0.00 0.00 0.00 61 1048.7
20180218125005 14 340 11.3 17.7 0.00 0.00 0.00 60 1048.7
20180218124505 14 323 12.9 17.7 0.00 0.00 0.00 60 1048.7
20180218124006 14 325 11.3 14.5 0.00 0.00 0.00 60 1049.7
20180218123506 14 328 9.7 12.9 0.00 0.00 0.00 61 1049.7
20180218123007 14 328 9.7 12.9 0.00 0.00 0.00 61 1049.7
20180218122505 13 354 9.7 12.9 0.00 0.00 0.00 61 1050.7
20180218122005 13 2 9.7 12.9 0.00 0.00 0.00 60 1050.7
20180218121505 13 358 8.0 12.9 0.00 0.00 0.00 62 1050.7
20180218121005 13 355 6.4 11.3 0.00 0.00 0.00 63 1051.7
20180218120505 13 342 6.4 9.7 0.00 0.00 0.00 64 1051.7
20180218120005 13 340 6.4 12.9 0.00 0.00 0.00 64 1051.7
20180218115505 13 334 6.4 12.9 0.00 0.00 0.00 64 1051.7
20180218115005 12 332 8.0 12.9 0.00 0.00 0.00 64 1051.7
20180218114505 12 325 8.0 12.9 0.00 0.00 0.00 65 1051.7
20180218114006 12 315 9.7 12.9 0.00 0.00 0.00 65 1052.7
20180218113505 12 323 9.7 14.5 0.00 0.00 0.00 65 1052.7
20180218113005 12 333 8.0 14.5 0.00 0.00 0.00 66 1052.7
20180218112505 12 341 8.0 14.5 0.00 0.00 0.00 66 1052.7
20180218112005 12 341 8.0 9.7 0.00 0.00 0.00 67 1052.7
20180218111505 12 335 6.4 9.7 0.00 0.00 0.00 66 1052.7
20180218111005 12 342 6.4 8.0 0.00 0.00 0.00 67 1054.7
20180218110505 11 351 6.4 9.7 0.00 0.00 0.00 67 1054.7
20180218110005 11 351 8.0 9.7 0.00 0.00 0.00 67 1054.7
20180218105507 11 351 6.4 9.7 0.00 0.00 0.00 67 1054.7
20180218105005 11 358 6.4 9.7 0.00 0.00 0.00 68 1054.7
20180218104505 11 5 8.0 9.7 0.00 0.00 0.00 68 1054.7
20180218104005 11 7 8.0 9.7 0.00 0.00 0.00 68 1055.7
20180218103505 10 342 8.0 9.7 0.00 0.00 0.00 68 1055.7
20180218103006 10 328 8.0 9.7 0.00 0.00 0.00 68 1055.7
20180218102505 10 345 6.4 9.7 0.00 0.00 0.00 68 1056.8
20180218102005 10 358 6.4 9.7 0.00 0.00 0.00 68 1056.8
20180218101505 10 344 6.4 9.7 0.00 0.00 0.00 68 1056.8
20180218101005 10 339 6.4 9.7 0.00 0.00 0.00 67 1056.8
20180218100505 10 3 4.8 6.4 0.00 0.00 0.00 68 1056.8
20180218100005 9 9 4.8 6.4 0.00 0.00 0.00 69 1056.8
20180218095507 9 337 4.8 6.4 0.00 0.00 0.00 68 1056.8
20180218095005 9 331 6.4 8.0 0.00 0.00 0.00 68 1056.8
20180218094505 9 337 4.8 8.0 0.00 0.00 0.00 69 1056.8
20180218094005 9 342 3.2 6.4 0.00 0.00 0.00 69 1056.8
20180218093505 9 353 1.6 6.4 0.00 0.00 0.00 69 1056.8
20180218093005 9 1 0.0 3.2 0.00 0.00 0.00 68 1056.8
20180218092505 9 14 1.6 6.4 0.00 0.00 0.00 68 1055.7
20180218092005 9 19 3.2 6.4 0.00 0.00 0.00 67 1055.7
20180218091505 9 22 3.2 8.0 0.00 0.00 0.00 67 1055.7
20180218091005 9 30 4.8 8.0 0.00 0.00 0.00 66 1055.7
20180218090505 8 34 4.8 6.4 0.00 0.00 0.00 67 1055.7
20180218090006 8 26 3.2 6.4 0.00 0.00 0.00 68 1055.7
20180218085505 8 26 3.2 6.4 0.00 0.00 0.00 68 1055.7
20180218085005 8 21 3.2 6.4 0.00 0.00 0.00 68 1055.7
20180218084505 8 26 6.4 9.7 0.00 0.00 0.00 68 1055.7
20180218084006 8 30 6.4 9.7 0.00 0.00 0.00 68 1055.7
20180218083505 8 31 6.4 9.7 0.00 0.00 0.00 68 1055.7
20180218083005 8 32 6.4 9.7 0.00 0.00 0.00 68 1055.7
20180218082505 8 33 6.4 9.7 0.00 0.00 0.00 68 1055.7
20180218082005 8 29 6.4 9.7 0.00 0.00 0.00 68 1055.7
20180218081506 7 25 6.4 9.7 0.00 0.00 0.00 69 1055.7
20180218081005 7 32 6.4 8.0 0.00 0.00 0.00 69 1056.8
20180218080505 7 41 4.8 8.0 0.00 0.00 0.00 68 1056.8
20180218080005 8 35 6.4 9.7 0.00 0.00 0.00 68 1056.8
20180218075506 8 25 9.7 12.9 0.00 0.00 0.00 68 1055.7
20180218075006 8 24 9.7 12.9 0.00 0.00 0.00 68 1055.7
20180218074506 7 26 8.0 12.9 0.00 0.00 0.00 68 1055.7
20180218074006 7 30 6.4 8.0 0.00 0.00 0.00 69 1055.7
20180218073505 7 25 6.4 8.0 0.00 0.00 0.00 69 1055.7
20180218073006 7 26 8.0 9.7 0.00 0.00 0.00 69 1055.7
20180218072506 7 28 8.0 9.7 0.00 0.00 0.00 69 1055.7
20180218072005 7 25 8.0 9.7 0.00 0.00 0.00 69 1055.7
20180218071505 7 22 6.4 9.7 0.00 0.00 0.00 70 1055.7
20180218071006 7 23 6.4 9.7 0.00 0.00 0.00 70 1056.8
20180218070506 7 23 6.4 9.7 0.00 0.00 0.00 70 1056.8
20180218070006 7 25 8.0 9.7 0.00 0.00 0.00 70 1056.8
20180218065505 7 41 8.0 9.7 0.00 0.00 0.00 70 1056.8
20180218065006 7 44 8.0 9.7 0.00 0.00 0.00 70 1056.8
20180218064505 7 32 8.0 9.7 0.00 0.00 0.00 71 1056.8
20180218064006 7 41 8.0 11.3 0.00 0.00 0.00 71 1056.8
20180218063505 8 46 9.7 17.7 0.00 0.00 0.00 71 1056.8
20180218063006 8 34 11.3 17.7 0.00 0.15 0.00 71 1056.8
20180218062505 8 29 9.7 17.7 0.00 0.15 0.00 72 1056.8
20180218062006 7 28 9.7 12.9 0.00 0.15 0.00 72 1056.8
20180218061505 7 25 9.7 11.3 0.00 0.15 0.00 72 1056.8
20180218061006 7 38 9.7 12.9 0.00 0.15 0.00 73 1056.8
20180218060506 7 31 9.7 12.9 0.00 0.15 0.00 73 1056.8
20180218060006 7 23 9.7 12.9 0.00 0.15 0.00 74 1056.8
20180218055505 8 25 11.3 16.1 0.00 0.15 0.00 74 1056.8
20180218055006 8 21 12.9 16.1 0.00 0.15 0.00 74 1056.8
20180218054505 7 31 11.3 16.1 0.00 0.15 0.00 75 1056.8
20180218054006 7 35 9.7 14.5 0.00 0.15 0.00 76 1057.8
20180218053506 7 28 9.7 11.3 0.00 0.15 0.00 77 1057.8
20180218053006 7 26 8.0 9.7 0.00 0.15 0.00 78 1057.8
20180218052505 7 23 6.4 9.7 0.00 0.15 0.00 78 1057.8
20180218052006 7 28 8.0 9.7 0.00 0.15 0.00 79 1057.8
20180218051505 7 34 8.0 9.7 0.00 0.15 0.00 79 1057.8
20180218051006 7 30 9.7 11.3 0.00 0.15 0.00 79 1057.8
20180218050505 7 38 9.7 11.3 0.00 0.15 0.00 79 1057.8
20180218050006 7 54 9.7 9.7 0.00 0.15 0.00 79 1057.8
20180218045505 8 48 9.7 12.9 0.00 0.15 0.00 79 1057.8
20180218045006 8 37 9.7 12.9 0.00 0.15 0.00 79 1057.8
20180218044505 8 31 8.0 9.7 0.00 0.15 0.00 79 1057.8
20180218044006 8 33 8.0 11.3 0.00 0.15 0.00 79 1057.8
20180218043506 8 35 8.0 11.3 0.00 0.15 0.00 80 1057.8
20180218043007 8 33 6.4 9.7 0.00 0.15 0.00 80 1057.8
20180218042505 8 22 4.8 8.0 0.00 0.15 0.00 81 1057.8
20180218042006 8 23 6.4 8.0 0.00 0.15 0.00 81 1057.8
20180218041505 8 23 6.4 8.0 0.00 0.15 0.00 81 1057.8
20180218041006 8 26 6.4 6.4 0.00 0.15 0.00 82 1057.8
20180218040505 8 26 6.4 6.4 0.00 0.15 0.00 82 1057.8
20180218040009 8 23 4.8 6.4 0.00 0.15 0.00 82 1057.8
20180218035506 8 23 4.8 6.4 0.00 0.15 0.00 83 1058.8
20180218035005 8 23 4.8 6.4 0.00 0.15 0.00 84 1058.8
20180218034506 8 23 3.2 6.4 0.00 0.15 0.00 85 1058.8
20180218034006 8 23 1.6 6.4 0.00 0.15 0.00 86 1058.8
20180218033505 8 0 0.0 0.0 0.00 0.15 0.00 86 1058.8
20180218033006 8 0 0.0 0.0 0.00 0.15 0.00 86 1058.8
20180218032505 8 0 0.0 0.0 0.00 0.15 0.00 86 1059.8
20180218032006 8 0 0.0 0.0 0.00 0.15 0.00 87 1059.8
20180218031506 7 0 0.0 0.0 0.00 0.15 0.00 87 1059.8
20180218031006 7 0 0.0 0.0 0.00 0.15 0.00 87 1059.8
20180218030505 7 0 0.0 0.0 0.00 0.15 0.00 86 1059.8
20180218030005 7 0 0.0 0.0 0.00 0.15 0.00 86 1059.8
20180218025505 7 17 3.2 6.4 0.00 0.15 0.00 86 1059.8
20180218025006 8 15 3.2 6.4 0.00 0.15 0.00 86 1059.8
20180218024505 8 18 4.8 6.4 0.00 0.15 0.00 86 1059.8
20180218024005 8 19 4.8 6.4 0.00 0.15 0.00 86 1059.8
20180218023505 8 10 4.8 6.4 0.00 0.15 0.00 86 1060.8
20180218023006 8 3 3.2 4.8 0.00 0.15 0.00 86 1060.8
20180218022505 8 6 1.6 4.8 0.00 0.15 0.00 86 1060.8
20180218022006 8 5 3.2 4.8 0.00 0.15 0.00 86 1056.8
20180218021505 8 358 3.2 6.4 0.00 0.15 0.00 86 1056.8
20180218021006 8 358 1.6 6.4 0.00 0.15 0.00 86 1056.8
20180218020506 8 0 0.0 0.0 0.00 0.15 0.00 86 1059.8
20180218020005 8 29 1.6 4.8 0.00 0.15 0.00 86 1059.8
20180218015506 8 25 3.2 6.4 0.00 0.15 0.00 86 1059.8
20180218015006 8 22 4.8 9.7 0.00 0.15 0.00 86 1059.8
20180218014505 8 19 6.4 9.7 0.00 0.15 0.00 86 1059.8
20180218014006 8 11 3.2 6.4 0.00 0.15 0.00 86 1059.8
20180218013505 8 358 1.6 6.4 0.00 0.15 0.00 86 1060.8
20180218013006 8 353 3.2 4.8 0.00 0.15 0.00 86 1060.8
20180218012506 8 351 1.6 4.8 0.00 0.15 0.00 86 1060.8
20180218012006 8 0 0.0 0.0 0.00 0.15 0.00 86 1058.8
20180218011506 8 23 1.6 4.8 0.00 0.15 0.00 86 1058.8
20180218011006 8 22 3.2 4.8 0.00 0.15 0.00 86 1058.8
20180218010505 8 26 4.8 8.0 0.00 0.15 0.00 86 1059.8
20180218010008 8 25 6.4 9.7 0.00 0.15 0.00 86 1059.8
20180218005506 9 24 8.0 9.7 0.00 0.15 0.00 86 1059.8
20180218005006 9 23 8.0 9.7 0.00 0.15 0.00 86 1059.8
20180218004506 9 22 8.0 9.7 0.00 0.15 0.00 86 1059.8
20180218004006 9 22 6.4 9.7 0.00 0.15 0.00 86 1059.8
20180218003505 9 19 8.0 9.7 0.00 0.15 0.00 87 1059.8
20180218003006 9 11 8.0 9.7 0.00 0.15 0.00 87 1059.8
20180218002505 9 8 6.4 9.7 0.00 0.15 0.00 87 1059.8
20180218002006 9 20 6.4 9.7 0.00 0.15 0.00 87 1056.8
20180218001505 9 20 9.7 11.3 0.00 0.15 0.00 87 1056.8
20180218001006 9 18 9.7 11.3 0.00 0.15 0.00 87 1056.8
20180218000505 9 21 9.7 11.3 0.00 0.15 0.00 87 1058.8
20180218000009 9 17 9.7 12.9 0.00 0.15 0.00 87 1058.8
20180217235505 9 15 11.3 12.9 0.00 0.15 0.15 87 1058.8
20180217235007 9 20 11.3 14.5 0.00 0.15 0.15 87 1059.8
20180217234506 9 19 11.3 14.5 0.00 0.15 0.15 87 1059.8
20180217234006 9 18 11.3 12.9 0.00 0.15 0.15 87 1059.8
20180217233506 9 21 9.7 12.9 0.00 0.15 0.15 87 1058.8
20180217233007 9 11 9.7 12.9 0.00 0.15 0.15 87 1058.8
20180217232505 9 9 9.7 12.9 0.00 0.15 0.15 87 1058.8
20180217232005 9 16 9.7 12.9 0.00 0.15 0.15 87 1059.8
20180217231505 9 19 9.7 11.3 0.00 0.15 0.15 87 1059.8
20180217231006 9 19 9.7 12.9 0.00 0.15 0.15 87 1059.8
20180217230506 9 19 9.7 12.9 0.00 0.13 0.15 87 1059.8
20180217230007 9 18 9.7 14.5 0.00 0.13 0.15 87 1059.8
20180217225506 9 20 9.7 14.5 0.00 0.13 0.15 86 1059.8
20180217225006 9 21 9.7 9.7 0.00 0.13 0.15 86 1059.8
20180217224507 9 21 8.0 9.7 0.00 0.13 0.15 86 1059.8
20180217224006 9 16 9.7 9.7 0.00 0.13 0.15 86 1059.8
20180217223505 9 15 9.7 9.7 0.00 0.13 0.15 86 1059.8
20180217223006 9 13 9.7 11.3 0.00 0.13 0.15 85 1059.8
20180217222505 9 6 9.7 11.3 0.00 0.13 0.15 85 1059.8
20180217222006 9 5 9.7 11.3 0.00 0.13 0.15 85 1059.8
20180217221506 9 7 9.7 11.3 0.00 0.13 0.15 85 1059.8
20180217221006 9 9 9.7 12.9 0.00 0.13 0.15 85 1059.8
20180217220506 9 12 11.3 12.9 0.00 0.13 0.15 85 1057.8
20180217220007 9 14 9.7 11.3 0.00 0.13 0.15 85 1057.8
20180217215505 9 15 9.7 11.3 0.00 0.13 0.15 85 1057.8
20180217215006 9 21 9.7 9.7 0.00 0.13 0.15 85 1056.8
20180217214506 9 20 9.7 16.1 0.00 0.13 0.15 85 1056.8
20180217214006 9 19 11.3 16.1 0.00 0.13 0.15 85 1056.8
20180217213506 9 13 11.3 14.5 0.00 0.13 0.15 85 1054.7
20180217213006 9 11 11.3 14.5 0.00 0.13 0.15 85 1054.7
20180217212506 9 18 11.3 14.5 0.00 0.13 0.15 85 1054.7
20180217212006 9 21 11.3 16.1 0.00 0.13 0.15 86 1054.7
20180217211504 9 18 11.3 16.1 0.00 0.13 0.15 86 1054.7
20180217211006 9 14 11.3 14.5 0.00 0.13 0.15 85 1054.7
20180217210504 9 10 11.3 14.5 0.00 0.13 0.15 85 1057.8
20180217210004 9 13 11.3 14.5 0.00 0.13 0.15 85 1057.8
20180217205504 9 17 12.9 14.5 0.00 0.13 0.15 85 1057.8
20180217205004 10 17 12.9 14.5 0.00 0.13 0.15 85 1057.8
20180217204504 10 18 12.9 17.7 0.00 0.13 0.15 85 1057.8
20180217204005 10 21 12.9 17.7 0.00 0.13 0.15 85 1057.8
20180217203504 10 20 11.3 16.1 0.00 0.13 0.15 85 1057.8
20180217203004 10 17 11.3 14.5 0.00 0.13 0.15 85 1057.8
20180217202504 10 17 11.3 14.5 0.00 0.13 0.15 85 1057.8
20180217202004 10 16 9.7 14.5 0.00 0.13 0.15 85 1055.7
20180217201504 10 14 11.3 16.1 0.00 0.13 0.15 85 1055.7
20180217201005 10 24 14.5 17.7 0.00 0.13 0.15 85 1055.7
20180217200503 10 21 14.5 17.7 0.00 0.13 0.15 85 1059.8
20180217200004 10 18 14.5 20.9 0.00 0.13 0.15 85 1059.8
20180217195504 10 21 14.5 20.9 0.00 0.13 0.15 85 1059.8
20180217195004 10 23 14.5 20.9 0.00 0.13 0.15 85 1060.8
20180217194504 10 21 12.9 17.7 0.00 0.13 0.15 85 1060.8
20180217194004 10 14 11.3 16.1 0.00 0.13 0.15 85 1060.8
20180217193504 10 12 11.3 14.5 0.00 0.13 0.15 85 1059.8
20180217193004 10 17 12.9 14.5 0.00 0.13 0.15 85 1059.8
20180217192504 10 20 12.9 16.1 0.00 0.13 0.15 85 1059.8
20180217192004 10 17 12.9 16.1 0.00 0.13 0.15 85 1059.8
20180217191504 10 15 12.9 16.1 0.00 0.13 0.15 85 1059.8
20180217191004 10 15 12.9 20.9 0.00 0.13 0.15 85 1059.8
20180217190504 10 9 14.5 20.9 0.00 0.13 0.15 84 1060.8
20180217190004 10 12 14.5 16.1 0.00 0.13 0.15 84 1060.8
20180217185504 10 10 14.5 20.9 0.00 0.13 0.15 84 1060.8
20180217185006 10 7 14.5 20.9 0.00 0.13 0.15 83 1060.8
20180217184504 10 12 14.5 20.9 0.00 0.13 0.15 83 1060.8
20180217184004 10 12 14.5 20.9 0.00 0.13 0.15 83 1060.8
20180217183505 10 10 14.5 20.9 0.00 0.13 0.15 82 1061.8
20180217183004 10 7 16.1 20.9 0.00 0.13 0.15 82 1061.8
20180217182504 10 13 14.5 20.9 0.00 0.13 0.15 82 1061.8